星链-6118 (STARLINK-6118 )

导读 | 星芒AI

STARLINK-6118 是 SpaceX Starlink 卫星互联网项目中的第 6118 颗卫星。该卫星属于低轨通信卫星群,旨在为全球用户提供高速互联网服务。它运行在约 550 公里的近地轨道上,采用先进的通信技术,支持宽带接入和低延迟数据传输。作为 Starlink 计划的一部分,STARLINK-6118 有助于扩大网络覆盖范围,特别是在偏远和网络基础设施不足的地区。该卫星由 SpaceX 自动化制造并发射,是实现全球互联网接入愿景的重要组成部分。

基本信息
目录编号:
57106
目录名称:
STARLINK-6118
国际标识:
2023-090F
轨道中心:
EARTH
卫星名称:
星链-6118
卫星全名:
星链-6118 (STARLINK-6118 )
卫星状态:
在轨 (已飞行865 天)
发射日期:
2023-06-23 UTC
国别 :
美国 (US)
星等 :
--
轨道信息
数据来源 国际轨道数据
星历时间: 2025-11-02T11:18:21+0800
1天前
查看轨道信息
半长轴: 6937.228km
偏心率: 0.0001298
轨道倾角: 43.005°
近地点辐角 274.213°
升交点赤经 247.954°
平近点角 85.856°
近地点: 558.192km
远地点: 559.994km
周期: 95.838分钟
每日圈数: 15.025323
详细信息
固有亮度:
5
最大亮度:
2.4
卫星平台:
Starlink v1.5
覆盖范围:
全球
运营商:
太空探索技术公司
运营商所在国:
美国
制造商(研发单位):
太空探索技术公司
制造商所在国:
美国
使用方式:
暂无
卫星简介
星链(Starlink)计划是由太空探索技术公司(SpaceX)提出的一个巨型低轨卫星互联网星座项目,计划在2019年至2024年间在太空搭建由约1.2万颗卫星组成的“星链”网络,其中1584颗将部署在地球上空550千米处的近地轨道,并从2020年开始工作。该卫星仍在工作。
2D轨道图
3D轨道图
轨道高度分析图
轨道倾角分析图
轨道综合分析图
查看轨道综合分析图